User: anonymous   Login
Location: Cluj-Napoca
(46.7712°N, 23.6236°E)
Time: 05:38:02
(UTC+02:00)
Language:

YUBILEINY - Orbit

View from above orbital plane
View from above orbital plane
View from above satellite
View from above satellite

Ground track
Ground track

The orbit data is extracted from the following two-line orbital elements,

1 32953U 08025A   21332.73516143  .00000021  00000-0  80971-4 0  9990
2 32953  82.5017 308.7563 0019460 342.5118  17.5287 12.43105979613396
Epoch (UTC): 28 November 2021 17:38:37
Eccentricity: 0.0019460
inclination: 82.5017°
perigee height: 1478 km
apogee height: 1509 km
right ascension of ascending node: 308.7563°
argument of perigee: 342.5118°
revolutions per day: 12.43105979
mean anomaly at epoch: 17.5287°
orbit number at epoch: 61339

The dashed part of the orbit path shows where the satellite is in the earth's shadow,  

DLR